Colorado Springs, CO

1:10 AM MDT on March 23, 2017 (GMT -0600)
City Of Colorado Springs Municipal

Weather History for KCOS - February, 2014

Change the Weather History Date:

Monday, February 3, 2014

  Actual Average Record
Temperature  
Mean Temperature 23 °F 31 °F  
Max Temperature 35 °F 43 °F 69 °F (1925)
Min Temperature 11 °F 18 °F -18 °F (1996)
Degree Days  
Heating Degree Days 42 34  
Month to date heating degree days 142 102  
Since 1 July heating degree days 3678 3745  
Cooling Degree Days 0 0  
Month to date cooling degree days 0 0  
Year to date cooling degree days 0 0  
Moisture  
Dew Point 13 °F    
Average Humidity 66    
Maximum Humidity 84    
Minimum Humidity 47    
Precipitation  
Precipitation T in 0.01 in 0.21 in (1955)
Month to date precipitation 0.04 0.03  
Year to date precipitation 0.71 0.35  
Snow  
Snow T in 0.20 in 4.70 in (1955)
Month to date snowfall 0.6 0.5  
Since 1 July snowfall 21.3 19.6  
Snow Depth 2.00 in    
Sea Level Pressure  
Sea Level Pressure 29.93 in    
Wind  
Wind Speed 6 mph (North)    
Max Wind Speed 14 mph    
Max Gust Speed 16 mph    
Visibility 6 miles    
Events Fog , Snow    
T = Trace of Precipitation, MM = Missing Value Source: NWS Daily Summary

Daily Weather History Graph

Daily Weather History Graph

Search for Another Location

Airport or City:

Trip Planner

Search our weather history database for the weather conditions in past years. The results will help you decide how hot, cold, wet, or windy it might be!

Date:

Astronomy

Feb. 03, 2014 Rise Set
Actual Time 7:02 AM MST 5:22 PM MST
Civil Twilight 6:35 AM MST 5:50 PM MST
Nautical Twilight 6:03 AM MST 6:22 PM MST
Astronomical Twilight 5:32 AM MST 6:53 PM MST
Moon 9:09 AM MST (2/3) 10:12 PM MST (2/3)
Length of Visible Light 11h 15m
Length of Day
10h 19m
Waxing Crescent, 20% of the Moon is Illuminated
Feb 3
Waxing Crescent
Feb 6
First Quarter
Feb 14
Full
Feb 22
Last Quarter
Mar 1
New

Hourly Weather History & Observations

Time (MST) Temp. Windchill Dew Point Humidity Pressure Visibility Wind Dir Wind Speed Gust Speed Precip Events Conditions
12:31 AM 17.1 °F - 15.1 °F 92% 29.85 in 0.2 mi Calm Calm - 0.00 in Fog , Snow Light Snow
12:54 AM 17.1 °F 11.7 °F 15.1 °F 92% 30.05 in 0.2 mi SSW 3.5 mph - 0.00 in Fog Light Freezing Fog
1:54 AM 17.1 °F - 14.0 °F 88% 30.02 in 0.2 mi Calm Calm - 0.00 in Fog , Snow Light Snow
2:44 AM 17.1 °F 11.7 °F 12.9 °F 84% 29.82 in 0.2 mi Variable 3.5 mph - 0.00 in   Overcast
2:54 AM 17.1 °F - 14.0 °F 88% 30.01 in 0.2 mi Calm Calm - 0.00 in   Overcast
3:49 AM 17.6 °F - 14.0 °F 86% 29.80 in 0.5 mi Calm Calm - N/A   Overcast
3:54 AM 18.0 °F 12.7 °F 14.0 °F 84% 29.99 in 0.5 mi ESE 3.5 mph - N/A   Overcast
4:54 AM 16.0 °F 5.3 °F 10.9 °F 81% 29.99 in 0.5 mi North 8.1 mph - N/A   Mist
5:08 AM 15.1 °F 6.4 °F 10.0 °F 80% 29.78 in 0.2 mi Variable 5.8 mph - N/A Fog Light Freezing Fog
5:23 AM 14.0 °F 6.5 °F 10.0 °F 84% 29.77 in 0.5 mi NW 4.6 mph - N/A Fog Light Freezing Fog
5:49 AM 12.2 °F 2.9 °F 8.6 °F 85% 29.77 in 0.5 mi NW 5.8 mph - N/A   Partly Cloudy
5:54 AM 14.0 °F 6.5 °F 9.0 °F 80% 30.00 in 0.5 mi NW 4.6 mph - N/A   Partly Cloudy
5:58 AM 14.0 °F 5.1 °F 9.0 °F 80% 29.77 in 4.0 mi WNW 5.8 mph - N/A   Scattered Clouds
6:05 AM 14.0 °F 6.5 °F 9.0 °F 80% 29.77 in 5.0 mi WNW 4.6 mph - N/A   Scattered Clouds
6:54 AM 12.9 °F 3.8 °F 8.1 °F 81% 30.04 in 8.0 mi NNE 5.8 mph - N/A   Partly Cloudy
7:54 AM 17.1 °F 11.7 °F 10.9 °F 77% 30.02 in 10.0 mi WNW 3.5 mph - N/A   Partly Cloudy
8:54 AM 24.1 °F 18.2 °F 15.1 °F 69% 29.99 in 10.0 mi NNW 4.6 mph - N/A   Partly Cloudy
9:54 AM 28.0 °F 21.7 °F 18.0 °F 66% 29.99 in 10.0 mi SW 5.8 mph - N/A   Partly Cloudy
10:54 AM 30.0 °F 26.5 °F 18.0 °F 61% 29.99 in 10.0 mi SSE 3.5 mph - N/A   Partly Cloudy
11:54 AM 33.1 °F 27.7 °F 17.1 °F 52% 29.93 in 10.0 mi ENE 5.8 mph - N/A   Partly Cloudy
12:54 PM 34.0 °F 28.0 °F 16.0 °F 48% 29.90 in 10.0 mi East 6.9 mph - N/A   Scattered Clouds
1:54 PM 33.1 °F 28.7 °F 17.1 °F 52% 29.89 in 10.0 mi South 4.6 mph - N/A   Scattered Clouds
2:54 PM 33.1 °F 27.7 °F 16.0 °F 50% 29.89 in 10.0 mi South 5.8 mph - N/A   Scattered Clouds
3:54 PM 33.1 °F 26.9 °F 15.1 °F 48% 29.90 in 10.0 mi ESE 6.9 mph - N/A   Mostly Cloudy
4:54 PM 30.0 °F 22.4 °F 12.9 °F 49% 29.94 in 10.0 mi ENE 8.1 mph - N/A   Mostly Cloudy
5:54 PM 26.1 °F 15.0 °F 10.9 °F 53% 29.99 in 10.0 mi NE 12.7 mph - N/A   Mostly Cloudy
6:54 PM 25.0 °F 14.2 °F 10.9 °F 55% 30.01 in 10.0 mi NE 11.5 mph - N/A   Mostly Cloudy
7:54 PM 24.1 °F 18.2 °F 9.0 °F 53% 30.02 in 10.0 mi NNW 4.6 mph - N/A   Overcast
8:54 PM 23.0 °F 14.7 °F 9.0 °F 55% 30.00 in 10.0 mi NNW 6.9 mph - N/A   Overcast
9:54 PM 21.9 °F 11.7 °F 12.0 °F 66% 29.99 in 10.0 mi North 9.2 mph - N/A   Mostly Cloudy
10:54 PM 21.0 °F 9.9 °F 10.0 °F 63% 29.97 in 10.0 mi NNW 10.4 mph - N/A   Mostly Cloudy
11:54 PM 19.9 °F 8.6 °F 10.0 °F 65% 29.94 in 10.0 mi NNW 10.4 mph - N/A   Mostly Cloudy